(202554) = 2006 DV198

Discovered at Catalina on 2006-02-27 by CSS.

Orbit

Orbit type: Main Belt

Note: WebGL enabled browser required.

epoch2023-02-25.0
epoch JD2460000.5
perihelion date2023-02-14.18184
perihelion JD2459989.68184
argument of perihelion (°)173.08029
ascending node (°)69.38392
inclination (°)15.99557
eccentricity0.0684835
perihelion distance (AU)2.3690258
Tisserand w.r.t. Jupiter3.4
ΔV w.r.t. Earth (km/sec)10.9
semimajor axis (AU)2.5431925
mean anomaly (°)2.62899
mean daily motion (°/day)0.24301610
aphelion distance (AU)2.717
period (years)4.06
P-vector [x]-0.45793672
P-vector [y]-0.82826459
P-vector [z]-0.32291135
Q-vector [x]0.85074863
Q-vector [y]-0.30292368
Q-vector [z]-0.42949274
absolute magnitude16.34
phase slope0.15
uncertainty0
referenceMPO 745323
observations used450
oppositions15
arc length (days)7743
first opposition used2002
last opposition used2023
residual rms (arc-secs)0.77
perturbers coarse indicatorM-v
perturbers precise indicator003Ek
first observation date used2002-04-04.0
last observation date used2023-06-16.0
computer nameMPCLINUX
JD of orbit computation2456819.656162
perihelion JD uncertainty (days)3.6543E-04
argument of perihelion uncertainty (°)8.3852E-05
ascending node uncertainty (°)2.3434E-05
inclination uncertainty (°)6.4739E-06
eccentricity uncertainty 1.0501E-07
perihelion distance uncertainty (AU)2.7317E-07
Minimum Orbit Intersection Distances (in AU)
for orbit epoch: 2460000.5, reference: E2023-M35
Mercury1.90503
Venus1.64394
Earth1.35604
Mars0.83988
Jupiter2.29829
Saturn6.36657
Uranus16.0283
Neptune27.178

Observations

457 total observations over interval: 2002 04 04.31518 – 2023 06 16.498547
These data are available for download (format description).

Date (UT) J2000 RA J2000 Dec Magn Location Ref
2002 04 04.31518 12 31 49.64 +22 40 02.3   704 – Lincoln Laboratory ETS, New Mexico MPS 406903
2002 04 04.34472 12 31 47.87 +22 40 03.3   704 – Lincoln Laboratory ETS, New Mexico MPS 406903
2002 04 04.37970 12 31 45.68 +22 40 04.0   704 – Lincoln Laboratory ETS, New Mexico MPS 406903
2002 04 04.39518 12 31 44.72 +22 40 04.5   704 – Lincoln Laboratory ETS, New Mexico MPS 406903
2002 04 10.20637 12 26 06.47 +22 35 59.5 20.3   644 – Palomar Mountain/NEAT MPS 257994
2002 04 10.22745 12 26 05.26 +22 35 57.5 19.9   644 – Palomar Mountain/NEAT MPS 257994
2002 04 10.24840 12 26 04.08 +22 35 55.8 20.2   644 – Palomar Mountain/NEAT MPS 257994
2002 05 05.16086 12 09 12.93 +20 24 05.9 20.5   644 – Palomar Mountain/NEAT MPS 257994
2002 05 05.18168 12 09 12.43 +20 23 55.4 20.4   644 – Palomar Mountain/NEAT MPS 257994
2002 05 05.20199 12 09 11.95 +20 23 45.2 20.5   644 – Palomar Mountain/NEAT MPS 257994
2004 11 10.46670 04 33 50.65 +18 39 30.5 20.4 V 691 – Steward Observatory, Kitt Peak-Spacewatch MPS 257994
2004 11 10.49244 04 33 49.15 +18 39 35.1 20.4 V 691 – Steward Observatory, Kitt Peak-Spacewatch MPS 257994
2004 11 10.51852 04 33 47.61 +18 39 39.4 20.5 V 691 – Steward Observatory, Kitt Peak-Spacewatch MPS 257994
2006 02 27.40869 12 33 08.10 +24 05 56.7 20.0 V 703 – Catalina Sky Survey MPS 166369
2006 02 27.41628 12 33 07.74 +24 05 59.8 19.6 V 703 – Catalina Sky Survey MPS 166369
2006 02 27.42383 12 33 07.45 +24 06 04.1 20.6 V 703 – Catalina Sky Survey MPS 166369
2006 02 27.43142 12 33 07.20 +24 06 07.6 19.7 V 703 – Catalina Sky Survey MPS 166369
2006 03 06.37419 12 27 52.23 +24 58 02.2 19.8 V 703 – Catalina Sky Survey MPS 166369
2006 03 06.38157 12 27 51.87 +24 58 04.8 19.6 V 703 – Catalina Sky Survey MPS 166369
2006 03 06.38861 12 27 51.48 +24 58 07.8 19.8 V 703 – Catalina Sky Survey MPS 166369
2006 03 06.39568 12 27 51.04 +24 58 10.8 19.5 V 703 – Catalina Sky Survey MPS 166369
2006 03 23.38584 12 11 36.88 +26 21 56.9 19.4 V 703 – Catalina Sky Survey MPS 257994
2006 03 23.39535 12 11 36.38 +26 21 58.9 19.6 V 703 – Catalina Sky Survey MPS 257994
2006 03 23.40488 12 11 35.70 +26 22 00.1 20.1 V 703 – Catalina Sky Survey MPS 257994
2006 03 23.41443 12 11 35.01 +26 22 01.0 19.4 V 703 – Catalina Sky Survey MPS 257994
2006 04 06.16024 11 58 11.35 +26 25 56.7 20.6 V 703 – Catalina Sky Survey MPS 257994
2006 04 06.16675 11 58 11.06 +26 25 53.9 19.7 V 703 – Catalina Sky Survey MPS 257994
2006 04 06.17319 11 58 10.84 +26 25 51.7 19.5 V 703 – Catalina Sky Survey MPS 257994
2006 04 06.17981 11 58 10.30 +26 25 52.7 19.6 V 703 – Catalina Sky Survey MPS 257994
2007 07 11.70830 21 40 07.71 -36 34 31.8 19.5 V E12 – Siding Spring Survey MPS 257994
2007 07 11.71929 21 40 07.32 -36 34 38.4 19.4 V E12 – Siding Spring Survey MPS 257994
2007 07 11.73034 21 40 06.88 -36 34 47.1 19.6 V E12 – Siding Spring Survey MPS 257994
2007 07 11.74131 21 40 06.45 -36 34 51.8 19.1 V E12 – Siding Spring Survey MPS 257994
2007 08 07.62268 21 16 47.96 -40 39 55.9 19.5 V E12 – Siding Spring Survey MPS 257994
2007 08 07.63313 21 16 47.24 -40 39 59.3 19.6 V E12 – Siding Spring Survey MPS 257994
2007 08 07.64346 21 16 46.56 -40 40 03.0 19.7 V E12 – Siding Spring Survey MPS 257994
2008 11 01.33966 04 17 39.69 +15 28 45.3 19.7 V G96 – Mt. Lemmon Survey MPS 263259
2008 11 01.34925 04 17 39.19 +15 28 46.5 19.7 V G96 – Mt. Lemmon Survey MPS 263259
2008 11 01.35882 04 17 38.68 +15 28 47.4 19.8 V G96 – Mt. Lemmon Survey MPS 263259
2008 11 20.22003 03 58 32.09 +16 07 14.5 19.8 V 691 – Steward Observatory, Kitt Peak-Spacewatch MPS 265274
2008 11 20.23766 03 58 30.87 +16 07 16.8 19.9 V 691 – Steward Observatory, Kitt Peak-Spacewatch MPS 265274
2008 11 20.25529 03 58 29.65 +16 07 19.0 20.0 V 691 – Steward Observatory, Kitt Peak-Spacewatch MPS 265274
2008 12 01.25460 03 46 17.12 +16 32 10.4 19.7   704 – Lincoln Laboratory ETS, New Mexico MPS 267554
2008 12 01.27982 03 46 15.49 +16 32 14.3 20.1   704 – Lincoln Laboratory ETS, New Mexico MPS 267554
2008 12 01.29248 03 46 14.61 +16 32 14.9 20.1   704 – Lincoln Laboratory ETS, New Mexico MPS 267554
2008 12 01.30516 03 46 13.78 +16 32 16.4 20.2   704 – Lincoln Laboratory ETS, New Mexico MPS 267554
2008 12 05.22982 03 42 05.54 +16 41 52.8 20.0 V G96 – Mt. Lemmon Survey MPS 267554
2008 12 05.23650 03 42 05.14 +16 41 53.8 19.9 V G96 – Mt. Lemmon Survey MPS 267554
2008 12 05.24317 03 42 04.71 +16 41 54.7 19.8 V G96 – Mt. Lemmon Survey MPS 267554
2008 12 05.24984 03 42 04.28 +16 41 55.6 19.6 V G96 – Mt. Lemmon Survey MPS 267554
2008 12 20.20005 03 28 49.90 +17 23 40.5 20.3 V G96 – Mt. Lemmon Survey MPS 269982
2008 12 20.21265 03 28 49.33 +17 23 43.1 20.4 V G96 – Mt. Lemmon Survey MPS 269982
2008 12 20.21710 03 28 49.11 +17 23 43.7 20.7 V G96 – Mt. Lemmon Survey MPS 269982
2008 12 20.22598 03 28 48.72 +17 23 45.3 20.6 V G96 – Mt. Lemmon Survey MPS 269982
2008 12 21.24406 03 28 05.91 +17 26 57.6 20.2 V G96 – Mt. Lemmon Survey MPS 269982
2008 12 21.24843 03 28 05.73 +17 26 58.8 20.1 V G96 – Mt. Lemmon Survey MPS 269982
2008 12 21.25284 03 28 05.52 +17 26 59.5 20.3 V G96 – Mt. Lemmon Survey MPS 269982
2008 12 21.25721 03 28 05.34 +17 27 00.2 20.5 V G96 – Mt. Lemmon Survey MPS 269982
2009 01 17.16338 03 19 58.80 +19 12 04.5 21.4 V G96 – Mt. Lemmon Survey MPS 276242
2009 01 17.17310 03 19 58.83 +19 12 07.1 20.9 V G96 – Mt. Lemmon Survey MPS 276242
2009 01 17.17796 03 19 58.83 +19 12 08.6 21.1 V G96 – Mt. Lemmon Survey MPS 276242
2009 01 31.10682 03 23 47.43 +20 21 16.6 21.9 V G96 – Mt. Lemmon Survey MPS 276242
2009 01 31.11227 03 23 47.58 +20 21 18.0 21.3 V G96 – Mt. Lemmon Survey MPS 276242
2009 01 31.11773 03 23 47.76 +20 21 20.0 21.5 V G96 – Mt. Lemmon Survey MPS 276242
2009 01 31.12326 03 23 47.86 +20 21 21.9 21.0 V G96 – Mt. Lemmon Survey MPS 276242
2010 02 15.32981 12 10 56.82 +26 19 57.1 19.7 V 703 – Catalina Sky Survey MPS 316506
2010 02 15.33681 12 10 56.56 +26 20 01.0 20.2 V 703 – Catalina Sky Survey MPS 316506
2010 02 15.34374 12 10 56.35 +26 20 04.4 20.0 V 703 – Catalina Sky Survey MPS 316506
2010 02 15.35067 12 10 56.17 +26 20 08.1 20.5 V 703 – Catalina Sky Survey MPS 316506
2010 02 21.611816 12 07 08.063 +27 15 26.62 19.91 r F51 – Pan-STARRS 1, Haleakala MPS 320527
2010 02 21.620469 12 07 07.689 +27 15 30.91 19.88 r F51 – Pan-STARRS 1, Haleakala MPS 320527
2010 03 12.532768 11 50 24.592 +29 24 31.91 19.78 r F51 – Pan-STARRS 1, Haleakala MPS 338770
2010 03 12.541486 11 50 24.033 +29 24 34.52 19.68 r F51 – Pan-STARRS 1, Haleakala MPS 338770
2010 03 14.24586 11 48 40.39 +29 31 45.4 20.9 V 703 – Catalina Sky Survey MPS 319151
2010 03 14.25206 11 48 40.14 +29 31 47.5 19.6 V 703 – Catalina Sky Survey MPS 319151
2010 03 14.25839 11 48 39.56 +29 31 48.1 19.4 V 703 – Catalina Sky Survey MPS 319151
2010 03 14.26472 11 48 39.27 +29 31 50.3 19.5 V 703 – Catalina Sky Survey MPS 319151
2010 03 21.25098 11 41 31.88 +29 51 32.4 19.6 V 703 – Catalina Sky Survey MPS 320527
2010 03 21.25973 11 41 31.41 +29 51 34.8 19.9 V 703 – Catalina Sky Survey MPS 320527
2010 03 21.26854 11 41 30.80 +29 51 34.3 20.2 V 703 – Catalina Sky Survey MPS 320527
2010 03 21.27742 11 41 30.26 +29 51 35.1 19.9 V 703 – Catalina Sky Survey MPS 320527
2012 10 21.553430 04 03 10.751 +12 19 55.75 20.5 w F51 – Pan-STARRS 1, Haleakala MPS 439181
2012 10 21.569493 04 03 10.050 +12 19 56.69 20.3 w F51 – Pan-STARRS 1, Haleakala MPS 439181
2012 10 21.601684 04 03 08.647 +12 19 58.68 20.4 w F51 – Pan-STARRS 1, Haleakala MPS 439181
2012 11 07.370529 03 48 21.584 +12 39 06.45 20.2 w F51 – Pan-STARRS 1, Haleakala MPS 441229
2012 11 07.385725 03 48 20.616 +12 39 07.65 20.1 w F51 – Pan-STARRS 1, Haleakala MPS 441229
2012 11 07.400890 03 48 19.644 +12 39 08.90 20.1 w F51 – Pan-STARRS 1, Haleakala MPS 441229
2012 11 07.415991 03 48 18.680 +12 39 09.98 19.8 w F51 – Pan-STARRS 1, Haleakala MPS 441229
2012 11 08.399649 03 47 17.423 +12 40 29.18 20.3 g F51 – Pan-STARRS 1, Haleakala MPS 441229
2012 11 08.515420 03 47 09.926 +12 40 38.66 20.0 r F51 – Pan-STARRS 1, Haleakala MPS 441229
2012 11 08.527065 03 47 09.178 +12 40 39.57 19.9 r F51 – Pan-STARRS 1, Haleakala MPS 441229
2012 11 17.27787 03 37 41.48 +12 53 53.8 19.9 V G96 – Mt. Lemmon Survey MPS 444642
2012 11 17.28470 03 37 41.01 +12 53 54.3 19.7 V G96 – Mt. Lemmon Survey MPS 444642
